Regional Weather Roundup
Issued by NWS

Home | Current Version | Previous Version | Text Only | Print | Product List | Glossary Off
Versions: 1 2 3 4 5 6 7 8 9 10 11 12 13 14 15 16 17 18 19 20 21 22 23 24 25 26 27 28 29 30 31 32 33 34 35 36 37 38 39 40 41 42 43 44 45 46 47 48 49 50

000
ASUS43 KLOT 200506
RWRIL

ILLINOIS REGIONAL WEATHER ROUNDUP
NATIONAL WEATHER SERVICE CHICAGO/ROMEOVILLE IL
1200 AM CDT WED AUG 20 2014

NOTE: "FAIR" INDICATES FEW OR NO CLOUDS BELOW 12,000 FEET WITH NO
SIGNIFICANT WEATHER AND/OR OBSTRUCTIONS TO VISIBILITY.

* THESE STATIONS ARE NOT UNDER NWS QUALITY CONTROL. THEY ALSO MAY NOT
  REPORT WEATHER SUCH AS PRECIPITATION OR FOG.

ILZ001-002-007-009-015-016-024-200600-
NORTHWEST ILLINOIS

CITY           SKY/WX    TMP DP  RH WIND       PRES   REMARKS
MOLINE         CLEAR     67  63  87 CALM      29.82R
STERLING*      CLEAR     68  63  83 W5        29.81S
SAVANNA*       CLEAR     66  62  87 CALM      29.81S
$$

ILZ003-004-008-010-011-017-018-200600-
NORTH CENTRAL ILLINOIS

CITY           SKY/WX    TMP DP  RH WIND       PRES   REMARKS
ROCKFORD       PTCLDY    67  62  84 CALM      29.82R
FREEPORT*      CLEAR     68  63  85 W6        29.82S
ROCHELLE*      CLEAR     65  62  90 CALM      29.81S
DE KALB*       CLEAR     67  63  85 W6        29.82R
PERU*          CLEAR     67  63  87 W7        29.82R
$$

ILZ005-006-012>014-019>023-200600-
NORTHEAST ILLINOIS

CITY           SKY/WX    TMP DP  RH WIND       PRES   REMARKS
CHICAGO-OHARE  PTCLDY    72  62  71 W6        29.78R
CHICAGO-MIDWAY CLEAR     75  65  70 W5        29.78R
AURORA         CLEAR     66  62  87 W3        29.80R
LANSING*       PTCLDY    70  66  89 SW3       29.80R
JOLIET*        CLEAR     65  64  94 CALM      29.81R
WAUKEGAN       CLEAR     67  64  90 CALM      29.77R
DUPAGE AIRPORT CLEAR     68  62  81 W3        29.79R
KANKAKEE*      CLEAR     67  66  94 CALM      29.82R
WHEELING       CLEAR     71  65  81 NW3       29.79R
MORRIS*        CLEAR     67  67  97 W3        29.80R
ROMEOVILLE*    CLEAR     68  67  94 W5        29.80R
NORTHERLY ISL    N/A     75  63  66 W2          N/A
$$

LMZ740>746-200600-
SOUTHERN LAKE MICHIGAN

STATION/POSITION SKY/WX   TEMP    WIND        PRES    VSBY  WAVE
                          AIR SEA DIR/SP/G                  HT/PER
                          (F)     (DEG/KT/KT) (MB)    (MI)  (FT/S)
SOUTHERN BUOY              67 66  260/  2/  4 1007.7R         1/ 4
WAUKEGAN HARBOR            73     280/  7/  8   N/A
HARRISON CRIB              75     280/ 10/ 10   N/A
BURNHAM HARBOR             75     260/  4/  6   N/A
CALUMET HARBOR             76     250/  2/  4 1007.4R
BURNS HARBOR               73     190/  7/  8   N/A
MICHIGAN CITY              72     180/  8/ 10   N/A
MICHIGAN CITY 6N           71 70  220/  6/  8   N/A           1/ 3
ST. JOSEPH                 71 70  180/  6/  8   N/A           2/ 4
$$

ILZ025>027-034>036-040-047-049-050-058-095>099-200600-
WEST-CENTRAL ILLINOIS

CITY           SKY/WX    TMP DP  RH WIND       PRES   REMARKS
QUINCY         CLEAR     71  69  93 CALM      29.84R
GALESBURG*     CLEAR     64  62  94 CALM      29.84R FOG
MACOMB*        CLEAR     66  66  99 W3        29.86R
JACKSONVILLE*  CLEAR     73  72  95 SW5       29.85R
PITTSFIELD*    CLEAR     73  70  88 CALM      29.86R
$$

ILZ028>032-037-038-041>044-048-051>054-059>061-200600-
CENTRAL ILLINOIS

CITY           SKY/WX    TMP DP  RH WIND       PRES   REMARKS
PONTIAC        CLEAR     70  70 100 SW3       29.82R
DECATUR        CLEAR     74  70  87 W3        29.84R
PEORIA         CLEAR     73  68  84 CALM      29.83R
LACON*         CLEAR     68  65  92 CALM      29.81R
LINCOLN*       CLEAR     73  69  87 CALM      29.81R
SPRINGFIELD    CLEAR     71  69  93 CALM      29.84R
TAYLORVILLE    CLEAR     68  68 100 SW3       29.84R
$$

ILZ033-039-045-046-055>057-062-063-200600-
EAST-CENTRAL ILLINOIS

CITY           SKY/WX    TMP DP  RH WIND       PRES   REMARKS
CHAMPAIGN      CLEAR     68  66  93 SW6       29.85R
DANVILLE*        N/A     68  67  98 W3        29.81S
RANTOUL*       CLEAR     73  67  82 W6        29.85R
MATTOON        CLEAR     74  70  87 CALM      29.84R
PARIS*         PTCLDY    72  71  96 W6        29.84F
$$

ILZ079-100>102-200600-
SOUTHWEST ILLINOIS

CITY           SKY/WX    TMP DP  RH WIND       PRES   REMARKS
ALTON          CLEAR     71  71 100 CALM      29.85R FOG
BELLEVILLE     PTCLDY    75  75 100 CALM      29.83S FOG
CAHOKIA*       CLEAR     74  71  91 CALM      29.83S
SPARTA*        CLEAR     74  71  90 CALM      29.85R
$$

ILZ064>066-069>071-074>076-080>082-084>086-088>090-092>094-200600-
SOUTH-CENTRAL ILLINOIS

CITY           SKY/WX    TMP DP  RH WIND       PRES   REMARKS
CARBONDALE     CLEAR     70  67  90 CALM      29.84S
CAIRO*           N/A     72  68  89 CALM      29.84S
MARION         CLEAR     72  68  88 CALM      29.85S
MT. VERNON     CLEAR     70  64  83 CALM      29.85S
CENTRALIA*     CLEAR     71  68  90 CALM      29.84F
SALEM*         CLEAR     75  73  92 CALM      29.85S
$$

ILZ067-068-072-073-078-083-087-091-200600-
SOUTHEAST ILLINOIS

CITY           SKY/WX    TMP DP  RH WIND       PRES   REMARKS
LAWRENCEVILLE  PTCLDY    76  75  97 SW7       29.84R FOG
FLORA*         CLEAR     73  71  96 CALM      29.85S
FAIRFIELD*     CLEAR     72  72 100 MISG      29.84S
HARRISBURG*    CLEAR     69  69 100 CALM      29.86S
ROBINSON*      PTCLDY    77  76  95 W6        29.84S
CARMI*         CLEAR     70  70 100 CALM      29.84S
$$

ABBREVIATIONS USED IN REMARKS
   TC - TEMPERATURE IN CELSIUS
  WCI - WIND CHILL INDEX
   HX - HEAT INDEX
  VSB - VISIBILITY
$$



USA.gov is the U.S. government's official web portal to all federal, state and local government web resources and services.